User: anonymous   Login
Location: Unspecified
(0.0000°N, 0.0000°E)
Time: 07:12:54
(UTC+00:00)
Language:

AO-7 - Orbit

View from above orbital plane
View from above orbital plane
View from above satellite
View from above satellite

Ground track
Ground track

The orbit data is extracted from the following two-line orbital elements,

1  7530U 74089B   18347.88779270 -.00000027 +00000-0 +11217-3 0  9999
2  7530 101.7160 312.6849 0012245 349.3148 066.8355 12.53635736016878
Epoch (UTC): 13 December 2018 21:18:25
Eccentricity: 0.0012245
inclination: 101.7160°
perigee height: 1440 km
apogee height: 1459 km
right ascension of ascending node: 312.6849°
argument of perigee: 349.3148°
revolutions per day: 12.53635736
mean anomaly at epoch: 66.8355°
orbit number at epoch: 1687

The dashed part of the orbit path shows where the satellite is in the earth's shadow,  

DLR